Hourly Data Report for May 10, 2021

WINNIPEG THE FORKS
MANITOBA
Current Station Operator: ECCC - MSC

49°53'18.008" N
97°07'46.007" W
230.00 m
5023262
71579
XWN

Download Data

Hourly Data (May 2021)
Hourly Data Report for May 10, 2021
TIME
LST
Temp Definition
°C
Dew Point Definition
°C
Rel Hum Definition
%
Precip. Amount Definition
mm

Wind Dir Definition
10's deg

Wind Spd Definition
km/h
Visibility Definition
km
Stn Press Definition
kPa
Hmdx Definition


Wind Chill Definition


Weather Definition


00:00 2.2 -3.9 64 0.0 36 3   99.83     LegendNANA
01:00 2.7 -4.5 59 0.0 36 4   99.82     LegendNANA
02:00 2.3 -5.3 57 0.0 1 5   99.83     LegendNANA
03:00 1.8 -5.7 58 0.0 1 6   99.85     LegendNANA
04:00 0.6 -5.5 64 0.0 36 3   99.87     LegendNANA
05:00 0.0 -4.9 70 0.0 35 3   99.91   -1 LegendNANA
06:00 1.0 -4.0 69 0.0 0 1   99.95     LegendNANA
07:00 3.6 -4.2 57 0.0 4 1   99.99     LegendNANA
08:00 6.0 -4.8 46 0.0 6 4   100.01     LegendNANA
09:00 8.0 -5.8 37 0.0 2 2   100.00     LegendNANA
10:00 8.4 -7.6 31 0.0 4 4   99.98     LegendNANA
11:00 9.5 -7.1 30 0.0 7 6   99.97     LegendNANA
12:00 10.2 -7.4 28 0.0 8 5   99.92     LegendNANA
13:00 10.8 -7.7 26 0.0 24 4   99.87     LegendNANA
14:00 11.5 -8.5 24 0.0 8 7   99.82     LegendNANA
15:00 12.8 -7.6 23 0.0 3 3   99.78     LegendNANA
16:00 12.7 -8.7 22 0.0 5 2   99.75     LegendNANA
17:00 12.8 -9.1 21 0.0 8 2   99.72     LegendNANA
18:00 13.3 -8.7 21 0.0   0   99.70     LegendNANA
19:00 12.7 -8.3 22 0.0   0   99.71     LegendNANA
20:00 10.6 -6.7 29 0.0   0   99.73     LegendNANA
21:00 9.8 -7.2 29 0.0   0   99.79     LegendNANA
22:00 8.0 -7.3 33 0.0   0   99.82     LegendNANA
23:00 6.9 -5.7 40 0.0   0   99.82     LegendNANA

Notes on Data Quality.

Legend

  • E = Estimated
  • M = Missing
  • NA = Not Available*
  • [empty] = Indicates an unobserved value
Date modified: